Cape May, NJ

10:52 AM EST on February 24, 2017 (GMT -0500)
Cape May County

Weather History for KWWD - February, 2012

Change the Weather History Date:

Monday, February 20, 2012

  Actual Average Record
Temperature  
Mean Temperature 38 °F -  
Max Temperature 44 °F 42 °F 60 °F (2001)
Min Temperature 32 °F 30 °F 3 °F (2015)
Degree Days  
Heating Degree Days 27    
Moisture  
Dew Point 23 °F    
Average Humidity 54    
Maximum Humidity 75    
Minimum Humidity 42    
Precipitation  
Precipitation 0.00 in - - ()
Sea Level Pressure  
Sea Level Pressure 30.13 in    
Wind  
Wind Speed 10 mph (NNW)    
Max Wind Speed 16 mph    
Max Gust Speed 23 mph    
Visibility 10 miles    
Events      
Averages and records for this station are not official NWS values.
T = Trace of Precipitation, MM = Missing Value Source: NWS Daily Summary

Daily Weather History Graph

Daily Weather History Graph

Search for Another Location

Airport or City:

Trip Planner

Search our weather history database for the weather conditions in past years. The results will help you decide how hot, cold, wet, or windy it might be!

Date:

Astronomy

Feb. 20, 2012 Rise Set
Actual Time 6:45 AM EST 5:42 PM EST
Civil Twilight 6:18 AM EST 6:09 PM EST
Nautical Twilight 5:47 AM EST 6:40 PM EST
Astronomical Twilight 5:16 AM EST 7:11 PM EST
Moon 5:40 AM EST (2/20) 4:44 PM EST (2/20)
Length of Visible Light 11h 50m
Length of Day
10h 56m
Waning Crescent, 2% of the Moon is Illuminated
Feb 20
Waning Crescent
Feb 21
New
Feb 29
First Quarter
Mar 8
Full
Mar 14
Last Quarter

Hourly Weather History & Observations

Time (EST) Temp. Windchill Dew Point Humidity Pressure Visibility Wind Dir Wind Speed Gust Speed Precip Events Conditions
12:15 AM 37.4 °F 32.8 °F 26.6 °F 65% 29.91 in 10.0 mi North 5.8 mph - N/A   Scattered Clouds
12:35 AM 37.4 °F 30.8 °F 26.6 °F 65% 29.92 in 10.0 mi North 9.2 mph - N/A   Partly Cloudy
12:55 AM 39.2 °F 33.0 °F 26.6 °F 61% 29.92 in 10.0 mi NNE 9.2 mph - N/A   Scattered Clouds
1:15 AM 39.2 °F 33.6 °F 26.6 °F 61% 29.91 in 10.0 mi North 8.1 mph - N/A   Partly Cloudy
1:35 AM 39.2 °F 33.6 °F 26.6 °F 61% 29.91 in 10.0 mi North 8.1 mph - N/A   Clear
1:55 AM 37.4 °F 32.1 °F 26.6 °F 65% 29.91 in 10.0 mi North 6.9 mph - N/A   Clear
2:15 AM 39.2 °F 32.0 °F 26.6 °F 61% 29.91 in 10.0 mi North 11.5 mph 16.1 mph N/A   Clear
2:35 AM 37.4 °F 29.8 °F 24.8 °F 60% 29.92 in 10.0 mi North 11.5 mph 23.0 mph N/A   Clear
2:55 AM 37.4 °F 28.2 °F 23.0 °F 56% 29.92 in 10.0 mi North 16.1 mph 20.7 mph N/A   Clear
3:15 AM 37.4 °F 29.3 °F 23.0 °F 56% 29.93 in 10.0 mi North 12.7 mph 18.4 mph N/A   Clear
3:35 AM 37.4 °F 28.5 °F 21.2 °F 52% 29.93 in 10.0 mi North 15.0 mph 19.6 mph N/A   Clear
3:55 AM 37.4 °F 28.9 °F 21.2 °F 52% 29.94 in 10.0 mi North 13.8 mph 21.9 mph N/A   Clear
4:15 AM 37.4 °F 28.5 °F 21.2 °F 52% 29.94 in 10.0 mi North 15.0 mph 23.0 mph N/A   Clear
4:35 AM 37.4 °F 29.8 °F 19.4 °F 48% 29.96 in 10.0 mi North 11.5 mph 20.7 mph N/A   Clear
4:55 AM 37.4 °F 28.5 °F 19.4 °F 48% 29.97 in 10.0 mi North 15.0 mph 23.0 mph N/A   Clear
5:15 AM 35.6 °F 26.2 °F 19.4 °F 52% 29.99 in 10.0 mi North 15.0 mph - N/A   Mostly Cloudy
5:35 AM 35.6 °F 28.6 °F 19.4 °F 52% 30.01 in 10.0 mi North 9.2 mph - N/A   Overcast
5:55 AM 35.6 °F 26.6 °F 19.4 °F 52% 30.02 in 10.0 mi North 13.8 mph 21.9 mph N/A   Scattered Clouds
6:15 AM 35.6 °F 26.6 °F 19.4 °F 52% 30.02 in 10.0 mi North 13.8 mph 20.7 mph N/A   Clear
6:35 AM 35.6 °F 27.1 °F 19.4 °F 52% 30.03 in 10.0 mi North 12.7 mph 23.0 mph N/A   Clear
6:55 AM 35.6 °F 26.6 °F 19.4 °F 52% 30.04 in 10.0 mi North 13.8 mph 18.4 mph N/A   Clear
7:15 AM 35.6 °F 26.2 °F 19.4 °F 52% 30.06 in 10.0 mi North 15.0 mph 19.6 mph N/A   Clear
7:35 AM 35.6 °F 28.0 °F 19.4 °F 52% 30.07 in 10.0 mi North 10.4 mph 21.9 mph N/A   Clear
7:55 AM 35.6 °F 26.2 °F 17.6 °F 48% 30.09 in 10.0 mi North 15.0 mph 19.6 mph N/A   Clear
8:15 AM 35.6 °F 28.0 °F 19.4 °F 52% 30.10 in 10.0 mi North 10.4 mph - N/A   Clear
8:35 AM 35.6 °F 27.5 °F 19.4 °F 52% 30.11 in 10.0 mi North 11.5 mph - N/A   Clear
8:55 AM 37.4 °F 28.5 °F 19.4 °F 48% 30.13 in 10.0 mi North 15.0 mph 18.4 mph N/A   Clear
9:35 AM 37.4 °F 30.8 °F 19.4 °F 48% 30.15 in 10.0 mi North 9.2 mph 19.6 mph N/A   Clear
9:55 AM 37.4 °F 30.3 °F 19.4 °F 48% 30.17 in 10.0 mi NNW 10.4 mph 17.3 mph N/A   Clear
10:15 AM 37.4 °F 29.8 °F 19.4 °F 48% 30.19 in 10.0 mi NNW 11.5 mph - N/A   Clear
10:35 AM 37.4 °F 28.9 °F 19.4 °F 48% 30.19 in 10.0 mi North 13.8 mph 19.6 mph N/A   Clear
10:55 AM 39.2 °F 32.0 °F 21.2 °F 49% 30.21 in 10.0 mi NNW 11.5 mph 18.4 mph N/A   Clear
11:15 AM 39.2 °F 32.0 °F 21.2 °F 49% 30.21 in 10.0 mi NNW 11.5 mph 17.3 mph N/A   Clear
11:35 AM 39.2 °F 32.0 °F 21.2 °F 49% 30.22 in 10.0 mi NNW 11.5 mph - N/A   Clear
11:55 AM 39.2 °F 33.6 °F 19.4 °F 45% 30.22 in 10.0 mi NW 8.1 mph - N/A   Clear
12:15 PM 41.0 °F 35.8 °F 21.2 °F 45% 30.22 in 10.0 mi NNW 8.1 mph 16.1 mph N/A   Clear
12:35 PM 41.0 °F 34.7 °F 21.2 °F 45% 30.21 in 10.0 mi NW 10.4 mph 18.4 mph N/A   Clear
12:55 PM 41.0 °F 35.2 °F 23.0 °F 49% 30.21 in 10.0 mi WNW 9.2 mph 16.1 mph N/A   Clear
1:15 PM 42.8 °F 36.6 °F 21.2 °F 42% 30.21 in 10.0 mi WNW 11.5 mph - N/A   Clear
1:35 PM 41.0 °F 34.3 °F 24.8 °F 53% 30.21 in 10.0 mi WNW 11.5 mph 20.7 mph N/A   Clear
2:15 PM 41.0 °F 34.3 °F 23.0 °F 49% 30.21 in 10.0 mi WNW 11.5 mph 20.7 mph N/A   Clear
2:35 PM 42.8 °F 35.1 °F 23.0 °F 46% 30.21 in 10.0 mi WNW 16.1 mph 21.9 mph N/A   Clear
3:15 PM 42.8 °F 36.2 °F 21.2 °F 42% 30.22 in 10.0 mi West 12.7 mph 19.6 mph N/A   Clear
3:35 PM 42.8 °F 37.0 °F 23.0 °F 46% 30.22 in 10.0 mi WNW 10.4 mph 18.4 mph N/A   Clear
4:15 PM 44.6 °F 39.7 °F 24.8 °F 46% 30.22 in 10.0 mi WNW 9.2 mph - N/A   Clear
4:35 PM 44.6 °F 40.7 °F 24.8 °F 46% 30.23 in 10.0 mi WNW 6.9 mph - N/A   Clear
4:55 PM 44.6 °F 42.2 °F 24.8 °F 46% 30.23 in 10.0 mi WNW 4.6 mph - N/A   Clear
5:15 PM 42.8 °F 39.3 °F 24.8 °F 49% 30.24 in 10.0 mi NW 5.8 mph - N/A   Clear
5:35 PM 42.8 °F 39.3 °F 26.6 °F 53% 30.25 in 10.0 mi WNW 5.8 mph - N/A   Clear
5:55 PM 41.0 °F 38.0 °F 24.8 °F 53% 30.27 in 10.0 mi NW 4.6 mph - N/A   Clear
6:15 PM 39.2 °F 37.0 °F 24.8 °F 56% 30.28 in 10.0 mi West 3.5 mph - N/A   Clear
6:35 PM 39.2 °F 37.0 °F 24.8 °F 56% 30.29 in 10.0 mi West 3.5 mph - N/A   Clear
6:55 PM 37.4 °F - 24.8 °F 60% 30.30 in 10.0 mi Calm Calm - N/A   Clear
7:15 PM 35.6 °F - 24.8 °F 65% 30.30 in 10.0 mi Calm Calm - N/A   Clear
7:35 PM 33.8 °F - 24.8 °F 70% 30.31 in - Calm Calm - N/A   Clear
7:55 PM 33.8 °F - 24.8 °F 70% 30.31 in - Calm Calm - N/A   Clear
8:15 PM 32.0 °F 28.7 °F 24.8 °F 75% 30.32 in - WNW 3.5 mph - N/A   Clear
8:35 PM 35.6 °F - 26.6 °F 70% 30.33 in 10.0 mi Calm Calm - N/A   Clear
8:55 PM 33.8 °F 30.8 °F 26.6 °F 75% 30.33 in 10.0 mi NW 3.5 mph - N/A   Clear
9:15 PM 35.6 °F 32.8 °F 26.6 °F 70% 30.33 in 10.0 mi NW 3.5 mph - N/A   Clear
9:35 PM 35.6 °F 32.8 °F 28.4 °F 75% 30.33 in 10.0 mi NW 3.5 mph - N/A   Clear
10:15 PM 35.6 °F - 26.6 °F 70% 30.34 in 10.0 mi Calm Calm - N/A   Clear
10:35 PM 33.8 °F - 24.8 °F 70% 30.34 in 10.0 mi Calm Calm - N/A   Clear
10:55 PM 30.2 °F - 24.8 °F 80% 30.35 in - Calm Calm - N/A   Clear
11:15 PM 30.2 °F - 24.8 °F 80% 30.35 in - Calm Calm - N/A   Clear
11:35 PM 28.4 °F 24.6 °F 23.0 °F 80% 30.35 in - NNW 3.5 mph - N/A   Clear
11:55 PM 28.4 °F - 23.0 °F 80% 30.36 in - Calm Calm - N/A   Clear